Weather observations for the past three days for
Dodge Center Airport
Imperial (Metric)
Date Time (cdt) Wind (mph) Vis. (mi.) Weather Sky Cond. Temperature (ºF) Relative Humidity Wind Chill (°F) Heat Index (°F) Pressure Precipitation (in)
Air Dwpt 6 hour altimeter (in) sea level (mb) 1 hr 3 hr 6 hr
Max. Min.
22 19:55 W 6 7.00 Rain SCT017 BKN024 OVC036 71.6 68 88% 29.77 0.0
22 19:35 Calm 10.00 Light Rain BKN021 BKN027 OVC033 71.6 68 88% 29.76 0.0
22 19:15 Calm 10.00 Overcast SCT025 OVC046 71.6 68 88% 29.76 0.0
22 18:55 Calm 10.00 Mostly Cloudy BKN046 71.6 68 88% 29.76 0.0
22 18:35 Calm 10.00 Partly Cloudy SCT025 SCT036 SCT090 73.4 69.8 89% 29.76 0.0
22 18:15 Calm 10.00 Mostly Cloudy SCT014 BKN040 BKN090 71.6 69.8 94% 29.76 0.0
22 17:55 Calm 10.00 Mostly Cloudy BKN040 71.6 68 88% 29.77 0.0
22 17:35 Calm 10.00 Overcast SCT011 OVC038 71.6 69.8 94% 29.77 0.0
22 17:15 NE 5 10.00 Mostly Cloudy SCT008 BKN011 BKN036 71.6 69.8 94% 29.77 0.0
22 16:55 NE 5 10.00 Mostly Cloudy SCT006 BKN038 BKN100 71.6 69.8 94% 29.77 0.0
22 16:35 NE 5 10.00 Light Rain SCT006 SCT016 BKN100 69.8 69.8 100% 29.77 0.0
22 16:15 Calm 10.00 Rain SCT011 BKN019 BKN029 69.8 69.8 100% 29.77 0.0
22 15:55 Calm 7.00 Rain OVC016 69.8 69.8 100% 29.8 0.0
22 15:35 NE 7 10.00 Rain SCT002 BKN016 OVC024 69.8 68 94% 29.77 0.0
22 15:15 Calm 2.00 Thunderstorm Heavy Rain BKN024 OVC036 71.6 68 88% 29.82 0.0 0.05
22 14:55 E 6 10.00 Mostly Cloudy BKN036 73.4 68 83% 29.79 0.0
22 14:35 E 6 10.00 Mostly Cloudy SCT023 SCT029 BKN034 73.4 68 83% 29.78 0.0
22 14:15 Calm 10.00 Mostly Cloudy SCT021 BKN029 BKN036 75.2 68 78% 76 29.79 0.0
22 13:55 Calm 10.00 Overcast SCT021 SCT027 OVC034 75.2 69.8 83% 75 29.79 0.0
22 13:35 Calm 7.00 Mostly Cloudy SCT018 SCT024 BKN032 75.2 69.8 83% 75 29.8 0.0
22 13:15 NE 6 10.00 Overcast BKN018 OVC024 75.2 69.8 83% 75 29.81 0.0
22 12:55 NE 5 5.00 Mostly Cloudy with Haze BKN018 BKN025 75.2 69.8 83% 75 29.82 0.0
22 12:35 N 6 10.00 Overcast SCT016 OVC025 73.4 69.8 89% 29.82 0.0
22 12:15 N 6 10.00 Mostly Cloudy BKN027 73.4 68 83% 29.83 0.0
22 11:55 Calm 10.00 Mostly Cloudy SCT018 BKN025 73.4 68 83% 29.82 0.0
22 11:35 Calm 10.00 Mostly Cloudy BKN018 BKN025 73.4 68 83% 29.83 0.0
22 11:15 N 3 10.00 Overcast BKN018 OVC024 71.6 68 88% 29.83 0.0
22 10:55 Calm 10.00 Overcast BKN020 OVC024 71.6 68 88% 29.83 0.0
22 10:35 NW 6 10.00 Overcast BKN017 OVC021 71.6 68 88% 29.85 0.0
22 10:15 Calm 10.00 Mostly Cloudy BKN016 71.6 69.8 94% 29.85 0.0
22 09:55 NW 6 10.00 Overcast SCT009 OVC016 71.6 68 88% 29.86 0.0
22 09:35 W 6 10.00 Overcast OVC009 69.8 68 94% 29.86 0.0
22 09:15 NW 5 10.00 Overcast OVC007 69.8 68 94% 29.86 0.0
22 08:55 NW 5 10.00 Overcast OVC007 69.8 68 94% 29.86 0.0
22 08:35 Calm 10.00 Overcast OVC005 68 68 100% 29.86 0.0
22 08:15 NW 7 10.00 Overcast OVC005 68 68 100% 29.85 0.0
22 07:55 NW 3 10.00 Overcast OVC005 66.2 66.2 100% 29.85 0.0
22 07:35 Calm 10.00 Overcast OVC005 66.2 66.2 100% 29.86 0.0
22 07:15 NW 6 7.00 Overcast OVC003 66.2 66.2 100% 29.86 0.0
22 06:55 NW 7 10.00 Overcast OVC003 66.2 66.2 100% 29.87 0.0
22 06:35 NW 9 10.00 Overcast BKN005 OVC009 66.2 66.2 100% 29.87 0.0
22 06:15 Calm 10.00 Light Rain BKN007 BKN016 OVC039 66.2 66.2 100% 29.87 0.0
22 05:55 Calm 10.00 Light Rain SCT005 OVC036 66.2 66.2 100% 29.87 0.0
22 05:35 Calm 10.00 Overcast OVC005 66.2 66.2 100% 29.86 0.0
22 05:15 Calm 10.00 Overcast OVC003 66.2 66.2 100% 29.86 0.0
22 04:55 E 8 10.00 Overcast OVC003 66.2 66.2 100% 29.84 0.0
22 04:35 E 12 10.00 Light Rain OVC003 66.2 66.2 100% 29.84 0.0
22 04:15 E 9 10.00 Light Rain BKN003 BKN060 66.2 66.2 100% 29.85 0.0
22 03:55 E 10 10.00 Light Rain BKN003 BKN017 OVC110 66.2 66.2 100% 29.87 0.0
22 03:35 E 13 10.00 Light Rain BKN003 BKN013 OVC018 66.2 66.2 100% 29.89 0.0
22 03:15 E 8 10.00 Rain SCT005 BKN009 OVC015 66.2 66.2 100% 29.91 0.0
22 02:55 E 7 10.00 Heavy Rain SCT003 SCT006 OVC013 68 68 100% 29.93 0.0 0.01
22 02:35 NE 6 10.00 Heavy Rain SCT002 SCT008 OVC013 68 68 100% 29.94 0.0 0.01
22 02:15 NE 3 7.00 Heavy Rain SCT002 BKN008 OVC018 68 68 100% 29.94 0.0
22 01:55 NE 6 10.00 Heavy Rain BKN016 OVC024 68 68 100% 29.95 0.0
22 01:35 Calm 7.00 Heavy Rain OVC016 66.2 66.2 100% 29.97 0.0
22 01:15 Calm 10.00 Rain SCT016 BKN022 OVC040 68 68 100% 29.98 0.0 0.01
22 00:55 Calm 10.00 Heavy Rain SCT007 SCT015 OVC031 68 68 100% 29.99 0.0
22 00:35 Calm 7.00 Heavy Rain SCT008 SCT019 OVC034 69.8 69.8 100% 29.99 0.0 0.01
22 00:15 E 5 10.00 Rain SCT010 BKN017 OVC050 69.8 69.8 100% 29.97 0.0
21 23:55 E 7 10.00 Light Rain SCT009 SCT021 BKN034 69.8 69.8 100% 29.98 0.0
21 23:35 SE 8 10.00 Light Rain BKN005 69.8 69.8 100% 29.98 0.0
21 23:15 E 10 10.00 Light Rain OVC005 69.8 69.8 100% 29.98 0.0
21 22:55 SE 10 10.00 Overcast OVC005 69.8 69.8 100% 30 0.0
21 22:35 E 8 10.00 Light Rain OVC005 69.8 69.8 100% 29.99 0.0
21 22:15 E 8 10.00 Mostly Cloudy BKN005 69.8 69.8 100% 29.99 0.0
21 21:55 E 7 10.00 Partly Cloudy SCT007 SCT110 69.8 69.8 100% 30 0.0
21 21:35 E 8 10.00 Partly Cloudy SCT007 69.8 69.8 100% 29.98 0.0
21 21:15 E 8 10.00 Partly Cloudy SCT007 69.8 69.8 100% 29.98 0.0
21 20:55 E 7 10.00 Overcast BKN007 OVC012 69.8 69.8 100% 29.99 0.0
21 20:35 E 7 10.00 Mostly Cloudy BKN012 BKN075 69.8 69.8 100% 30.01 0.0
21 20:15 E 8 10.00 Mostly Cloudy SCT010 SCT075 BKN080 69.8 69.8 100% 30.02 0.0
21 19:55 E 9 10.00 Partly Cloudy SCT010 SCT075 71.6 69.8 94% 30.02 0.0
21 19:35 E 10 10.00 Partly Cloudy SCT012 71.6 69.8 94% 30.02 0.0
21 19:15 E 8 10.00 Fair CLR 71.6 69.8 94% 30.03 0.0
21 18:55 E 7 10.00 Partly Cloudy SCT012 71.6 69.8 94% 30.03 0.0
21 18:35 E 6 10.00 Mostly Cloudy SCT012 BKN080 71.6 69.8 94% 30.04 0.0
21 18:15 E 6 10.00 Mostly Cloudy SCT012 BKN080 71.6 69.8 94% 30.05 0.0
21 17:55 E 6 10.00 Partly Cloudy SCT012 73.4 69.8 89% 30.06 0.0
21 17:35 E 5 10.00 Mostly Cloudy BKN012 BKN060 71.6 69.8 94% 30.07 0.0
21 17:15 E 7 10.00 Mostly Cloudy SCT014 BKN060 73.4 69.8 89% 30.08 0.0
21 16:55 E 8 10.00 Partly Cloudy SCT010 SCT013 SCT060 71.6 69.8 94% 30.08 0.0
21 16:35 E 8 10.00 Mostly Cloudy SCT010 SCT014 BKN070 71.6 69.8 94% 30.09 0.0
21 16:15 E 8 10.00 Mostly Cloudy BKN008 BKN013 BKN070 71.6 69.8 94% 30.09 0.0
21 15:55 NE 8 10.00 Mostly Cloudy BKN008 71.6 69.8 94% 30.09 0.0
21 15:35 N 8 10.00 Partly Cloudy SCT006 SCT070 71.6 69.8 94% 30.08 0.0
21 15:15 NE 7 10.00 Mostly Cloudy SCT003 BKN060 69.8 69.8 100% 30.09 0.0
21 14:55 E 10 10.00 Thunderstorm SCT003 BKN060 BKN070 69.8 69.8 100% 30.1 0.0
21 14:35 NE 9 10.00 Light Rain BKN003 BKN030 BKN070 68 68 100% 30.12 0.0
21 14:15 N 13 G 20 4.00 Heavy Rain BKN003 BKN019 OVC028 68 68 100% 30.12 0.0 0.03
21 13:55 NE 8 7.00 Rain SCT005 BKN021 OVC028 68 68 100% 30.13 0.0 0.01
21 13:35 N 13 10.00 Rain SCT005 BKN008 OVC038 68 68 100% 30.11 0.0
21 13:15 N 9 7.00 Light Rain BKN007 BKN019 OVC034 69.8 69.8 100% 30.13 0.0
21 12:55 N 8 7.00 Rain SCT002 BKN021 OVC045 71.6 71.6 100% 30.13 0.0
21 12:35 Calm 1.75 Heavy Rain SCT002 BKN015 OVC023 71.6 69.8 94% 30.13 0.0 0.02
21 12:15 Calm 5.00 Light Rain BKN015 BKN033 71.6 69.8 94% 30.13 0.0
21 11:55 E 3 10.00 Mostly Cloudy SCT012 BKN033 BKN050 73.4 69.8 89% 30.14 0.0
21 11:35 SE 7 10.00 Partly Cloudy SCT050 73.4 69.8 89% 30.13 0.0
21 11:15 SE 8 10.00 Partly Cloudy SCT009 SCT055 73.4 69.8 89% 30.13 0.0
21 10:55 E 8 10.00 Partly Cloudy SCT009 71.6 68 88% 30.14 0.0
21 10:35 E 10 10.00 Partly Cloudy SCT085 71.6 68 88% 30.14 0.0
21 10:15 SE 9 10.00 Fair CLR 69.8 68 94% 30.14 0.0
21 09:55 E 7 10.00 Partly Cloudy SCT003 68 68 100% 30.14 0.0
21 09:35 E 9 10.00 Mostly Cloudy BKN003 64.4 64.4 100% 30.15 0.0
21 09:15 E 12 10.00 Mostly Cloudy BKN003 64.4 64.4 100% 30.15 0.0
21 08:55 E 13 10.00 Drizzle SCT005 SCT013 64.4 64.4 100% 30.16 0.0
21 08:35 E 15 10.00 Light Rain SCT005 BKN015 BKN024 64.4 64.4 100% 30.16 0.0
21 08:15 E 14 10.00 Thunderstorm Rain SCT004 BKN011 OVC027 64.4 64.4 100% 30.18 0.0
21 07:55 Calm 7.00 Thunderstorm Heavy Rain in Vicinity SCT004 BKN012 OVC032 64.4 64.4 100% 30.23 0.0 0.01
21 07:35 NW 8 4.00 Overcast SCT004 BKN009 OVC032 64.4 64.4 100% 30.22 0.0 0.01
21 07:15 NE 8 7.00 Heavy Rain BKN004 BKN009 OVC027 64.4 64.4 100% 30.19 0.0 0.03
21 06:55 E 13 10.00 Light Rain SCT002 BKN009 OVC026 64.4 64.4 100% 30.18 0.0
21 06:35 E 6 1.75 Thunderstorm Heavy Rain OVC002 64.4 64.4 100% 30.19 0.0 0.01
21 06:15 Calm 5.00 Light Rain BKN002 OVC019 64.4 64.4 100% 30.2 0.0
21 05:55 Calm 3.00 Thunderstorm Heavy Rain BKN002 BKN015 OVC025 64.4 64.4 100% 30.2 0.0 0.02
21 05:35 Calm 1.50 Thunderstorm Heavy Rain OVC002 64.4 64.4 100% 30.22 0.0 0.01
21 05:15 Calm 1.75 Thunderstorm Heavy Rain OVC002 64.4 64.4 100% 30.21 0.0 0.03
21 04:55 E 9 3.00 Fog/Mist OVC002 64.4 64.4 100% 30.2 0.0
21 04:35 E 7 3.00 Fog/Mist OVC002 64.4 64.4 100% 30.21 0.0
21 04:15 E 7 2.00 Fog/Mist OVC002 64.4 64.4 100% 30.21 0.0
21 03:55 E 8 0.75 Fog/Mist OVC002 64.4 64.4 100% 30.21 0.0
21 03:35 E 8 0.75 Fog/Mist OVC002 64.4 64.4 100% 30.22 0.0
21 03:15 E 8 1.25 Fog/Mist OVC002 64.4 64.4 100% 30.22 0.0
21 02:55 E 7 2.00 Fog/Mist OVC002 64.4 64.4 100% 30.22 0.0
21 02:35 E 6 2.50 Fog/Mist OVC002 64.4 64.4 100% 30.22 0.0
21 02:15 E 6 4.00 Fog/Mist OVC002 64.4 64.4 100% 30.22 0.0
21 01:55 E 5 4.00 Fog/Mist OVC004 64.4 64.4 100% 30.24 0.0
21 01:35 E 7 7.00 Overcast OVC004 64.4 64.4 100% 30.24 0.0
21 01:15 E 5 7.00 Overcast OVC004 64.4 64.4 100% 30.24 0.0
21 00:55 E 8 7.00 Light Rain OVC004 66.2 66.2 100% 30.23 0.0
21 00:35 E 7 5.00 Light Rain OVC004 66.2 66.2 100% 30.25 0.0
21 00:15 E 6 5.00 Light Rain OVC004 64.4 64.4 100% 30.24 0.0
20 23:55 E 8 5.00 Light Rain BKN006 64.4 64.4 100% 30.24 0.0
20 23:35 E 8 5.00 Light Rain SCT002 SCT006 64.4 64.4 100% 30.24 0.0
20 23:15 E 7 4.00 Light Rain BKN002 OVC006 62.6 62.6 100% 30.25 0.0
20 22:55 NE 5 5.00 Rain OVC002 62.6 62.6 100% 30.25 0.0
20 22:35 Calm 7.00 Rain OVC004 62.6 62.6 100% 30.27 0.0
20 22:15 Calm 7.00 Overcast BKN004 OVC100 62.6 62.6 100% 30.28 0.0
20 21:55 Calm 7.00 Mostly Cloudy SCT004 BKN100 64.4 64.4 100% 30.26 0.0
20 21:35 E 7 10.00 Partly Cloudy SCT004 SCT110 62.6 62.6 100% 30.25 0.0
20 21:15 NE 9 10.00 Light Rain SCT006 BKN110 62.6 62.6 100% 30.25 0.0
20 20:55 NE 8 10.00 Overcast SCT006 BKN009 OVC110 62.6 62.6 100% 30.27 0.0
20 20:35 N 10 10.00 Light Rain BKN004 OVC008 62.6 62.6 100% 30.29 0.0
20 20:15 N 10 10.00 Light Rain OVC004 62.6 62.6 100% 30.29 0.0
20 19:55 N 13 10.00 Light Rain BKN004 OVC009 64.4 64.4 100% 30.29 0.0
20 19:35 N 8 10.00 Light Rain SCT006 BKN019 66.2 64.4 94% 30.29 0.0
20 19:15 N 7 10.00 Light Rain BKN021 66.2 64.4 94% 30.27 0.0
20 18:55 N 5 10.00 Rain SCT021 66.2 64.4 94% 30.27 0.0
20 18:35 N 3 10.00 Fair CLR 66.2 64.4 94% 30.26 0.0
20 18:15 Calm 10.00 Light Rain CLR 66.2 64.4 94% 30.25 0.0
20 17:55 NE 12 10.00 Fair CLR 66.2 64.4 94% 30.24 0.0
20 17:35 NE 9 10.00 Light Rain CLR 66.2 64.4 94% 30.25 0.0
20 17:15 NE 10 10.00 Partly Cloudy SCT110 66.2 64.4 94% 30.27 0.0
20 16:55 NE 6 10.00 Light Rain SCT010 SCT015 SCT020 66.2 64.4 94% 30.28 0.0
20 16:35 NE 5 10.00 Rain SCT008 BKN015 OVC035 64.4 62.6 94% 30.29 0.0
20 16:15 N 10 10.00 Light Rain SCT008 SCT020 SCT110 64.4 62.6 94% 30.3 0.0
20 15:55 N 12 10.00 Light Rain SCT110 66.2 62.6 88% 30.32 0.0
20 15:35 N 13 10.00 Fair CLR 68 62.6 83% 30.32 0.0
20 15:15 N 8 10.00 Partly Cloudy SCT090 69.8 64.4 83% 30.31 0.0
20 14:55 N 5 10.00 Partly Cloudy SCT041 73.4 62.6 69% 30.31 0.0
20 14:35 NW 7 10.00 Overcast OVC043 71.6 62.6 73% 30.33 0.0
20 14:15 NW 7 10.00 Overcast OVC043 73.4 62.6 69% 30.33 0.0
20 13:55 Calm 10.00 Mostly Cloudy BKN039 BKN050 73.4 62.6 69% 30.33 0.0
20 13:35 N 5 10.00 Partly Cloudy SCT034 SCT041 SCT050 73.4 62.6 69% 30.33 0.0
20 13:15 Calm 10.00 Fair CLR 73.4 62.6 69% 30.32 0.0
20 12:55 N 3 10.00 Partly Cloudy SCT065 73.4 62.6 69% 30.32 0.0
20 12:35 Calm 10.00 Partly Cloudy SCT065 73.4 60.8 65% 30.32 0.0
20 12:15 E 6 10.00 Partly Cloudy SCT080 73.4 60.8 65% 30.32 0.0
20 11:55 NE 3 10.00 Fair CLR 73.4 60.8 65% 30.32 0.0
20 11:35 E 5 10.00 Fair CLR 71.6 60.8 69% 30.32 0.0
20 11:15 E 3 10.00 Fair CLR 71.6 60.8 69% 30.32 0.0
20 10:55 E 5 10.00 Fair CLR 69.8 60.8 73% 30.32 0.0
20 10:35 Calm 10.00 Fair CLR 69.8 60.8 73% 30.32 0.0
20 10:15 E 7 10.00 Fair CLR 68 60.8 78% 30.32 0.0
20 09:55 E 6 10.00 Fair CLR 69.8 60.8 73% 30.32 0.0
20 09:35 Calm 10.00 Fair CLR 66.2 60.8 83% 30.34 0.0
20 09:15 E 9 10.00 Fair CLR 66.2 59 78% 30.33 0.0
20 08:55 E 9 10.00 Fair CLR 64.4 59 83% 30.33 0.0
20 08:35 Calm 10.00 Partly Cloudy SCT065 64.4 57.2 78% 30.34 0.0
20 08:15 Calm 10.00 Partly Cloudy SCT065 62.6 57.2 83% 30.35 0.0
20 07:55 Calm 10.00 Fair CLR 60.8 57.2 88% 30.34 0.0
20 07:35 Calm 10.00 Fair CLR 60.8 55.4 83% 30.34 0.0
20 07:15 Calm 10.00 Partly Cloudy SCT080 60.8 57.2 88% 30.34 0.0
20 06:55 Calm 10.00 Mostly Cloudy BKN080 59 57.2 94% 30.34 0.0
20 06:35 Calm 10.00 Mostly Cloudy BKN080 59 57.2 94% 30.34 0.0
20 06:15 Calm 10.00 Overcast OVC080 57.2 55.4 94% 30.34 0.0
20 05:55 Calm 10.00 Overcast OVC070 57.2 55.4 94% 30.34 0.0
20 05:35 Calm 10.00 Mostly Cloudy BKN070 55.4 55.4 100% 30.33 0.0
20 05:15 Calm 10.00 Fair CLR 55.4 55.4 100% 30.33 0.0
20 04:55 Calm 10.00 Fair CLR 55.4 55.4 100% 30.33 0.0
20 04:35 Calm 10.00 Fair CLR 55.4 55.4 100% 30.34 0.0
20 04:15 Calm 10.00 Fair CLR 55.4 55.4 100% 30.34 0.0
20 03:55 Calm 10.00 Fair CLR 55.4 55.4 100% 30.33 0.0
20 03:35 Calm 10.00 Fair CLR 57.2 55.4 94% 30.33 0.0
20 03:15 Calm 10.00 Fair CLR 55.4 55.4 100% 30.33 0.0
20 02:55 Calm 10.00 Fair CLR 57.2 55.4 94% 30.32 0.0
20 02:35 Calm 10.00 Fair CLR 57.2 55.4 94% 30.32 0.0
20 02:15 Calm 10.00 Fair CLR 57.2 55.4 94% 30.32 0.0
20 01:55 Calm 10.00 Fair CLR 57.2 55.4 94% 30.31 0.0
20 01:35 Calm 10.00 Fair CLR 57.2 55.4 94% 30.32 0.0
20 01:15 Calm 10.00 Fair CLR 57.2 57.2 100% 30.31 0.0
20 00:55 Calm 10.00 Fair CLR 59 57.2 94% 30.31 0.0
20 00:35 Calm 10.00 Fair CLR 60.8 57.2 88% 30.31 0.0
20 00:15 Calm 10.00 Fair CLR 60.8 57.2 88% 30.31 0.0
19 23:55 Calm 10.00 Fair CLR 60.8 57.2 88% 30.31 0.0
19 23:35 Calm 10.00 Partly Cloudy SCT100 62.6 57.2 83% 30.32 0.0
19 23:15 Calm 10.00 Fair CLR 62.6 57.2 83% 30.32 0.0
19 22:55 Calm 10.00 Fair CLR 60.8 59 94% 30.32 0.0
19 22:35 Calm 10.00 Partly Cloudy SCT100 62.6 57.2 83% 30.33 0.0
19 22:15 Calm 10.00 Mostly Cloudy BKN100 62.6 57.2 83% 30.32 0.0
19 21:55 Calm 10.00 Overcast OVC100 64.4 57.2 78% 30.32 0.0
19 21:35 Calm 10.00 Mostly Cloudy BKN100 64.4 60.8 88% 30.32 0.0
19 21:15 Calm 10.00 Partly Cloudy SCT120 64.4 59 83% 30.32 0.0
19 20:55 Calm 10.00 Partly Cloudy SCT110 64.4 57.2 78% 30.32 0.0
19 20:35 Calm 10.00 Fair CLR 64.4 55.4 73% 30.31 0.0
19 20:15 NE 3 10.00 Fair CLR 64.4 55.4 73% 30.3 0.0
Date Time (cdt) Wind (mph) Vis. (mi.) Weather Sky Cond. Air Dwpt Max. Min. Relative Humidity Wind Chill (°F) Heat Index (°F) altimeter (in) sea level (mb) 1 hr 3 hr 6 hr
6 hour
Temperature (ºF) Pressure Precipitation (in)